Find Starlink 11446

NORAD ID: 62416 Int'l Des: 2024-249 Owner: SPXS Country: US Constellation: starlink operational
LEOCIRCULAR

リアルタイム位置

3D地球を読み込み中...

Starlink 11446について

説明を読み込み中...

次回通過

Passes for default location (London). Set your location on the main map for personalized predictions.

高度履歴

Loading altitude history...

軌道要素

1 62416U 24249H 26124.56766221 .00152758 00000-0 11715-2 0 9995
2 62416 42.9970 190.4033 0000094 198.3349 161.7515 15.70854543 78274
Epoch: May 4, 2026 • Age: 13 hours

現在のステータス

高度 366.5 km
速度 7.69 km/s
衛星直下点 -36.42°S, 134.4°W
打ち上げ日 Dec 23, 2024
運用期間 1.3 years
タイプ internet

技術仕様

分類 Payload
質量 960.00 kg
乾燥質量 910.00 kg
総質量 960.00 kg
長さ 0.30 m
直径 4.10 m
スパン 29.00 m
形状 Box + pan
製造者 SPXS
バスタイプ Starlink V2MD
フェーズステータス In Orbit
所有者/国 SPXS/US

Most Searched